Location: Newark
(48.6461°N, 4.3644°W)
Time: 21:14:59
(UTC+00:00)

Courier 1B - Visible Passes

Search period start: 17 January 2020 00:00
Search period end: 27 January 2020 00:00
Orbit: 962 x 1209 km, 28.3° (Epoch: 17 January)

Date Brightness Start Highest point End Pass type
(mag) Time Alt. Az. Time Alt. Az. Time Alt. Az.
17 Jan 10.2 06:47:25 10° SSW 06:50:58 14° SSE 06:54:31 10° SE visible
18 Jan 10.2 05:54:45 10° S 05:57:26 12° SSE 06:00:06 10° SE visible
19 Jan 10.0 06:52:24 10° SSW 06:56:38 16° S 07:00:53 10° SE visible
20 Jan 10.0 05:59:11 10° SSW 06:03:05 15° S 06:07:01 10° SE visible
21 Jan 10.0 05:06:18 10° SSW 05:09:33 13° SSE 05:12:50 10° SE visible
21 Jan 10.0 06:58:02 10° SW 07:02:20 16° S 07:06:39 10° SSE visible
22 Jan 10.0 04:15:38 11° SSE 04:16:03 11° SSE 04:18:02 10° SSE visible
22 Jan 9.9 06:04:31 10° SSW 06:08:46 16° S 06:13:03 10° SE visible
23 Jan 9.8 05:12:13 12° SSW 05:15:13 15° S 05:19:16 10° SE visible
23 Jan 9.9 07:04:16 10° SW 07:08:01 14° S 07:11:47 10° SSE visible
24 Jan 9.8 04:21:52 14° SSE 04:21:52 14° SSE 04:25:13 10° SE visible
24 Jan 9.8 06:10:27 10° SW 06:14:28 15° S 06:18:31 10° SSE visible
25 Jan 9.7 05:18:23 13° SSW 05:20:55 15° S 05:25:01 10° SSE visible
25 Jan 10.0 07:11:35 10° SSW 07:13:40 11° SSW 07:15:45 10° S visible
26 Jan 9.8 04:27:59 15° S 04:27:59 15° S 04:31:19 10° SE visible
26 Jan 9.9 06:17:06 10° SW 06:20:09 13° SSW 06:23:14 10° SSE visible
